Location: Julian California
(33.0790°N, 116.6010°W)
Time: 06:26:38
(UTC-07:00)

CZ-3 Stage 3 - Pass Details

Date: 14 June 2018
Orbit: 303 x 27456 km, 30.2° (Epoch: 17 June)

Event Time Altitude Azimuth Distance (km) Brightness Sun altitude
Rises 21:28:57 0° 255° (WSW) 2,360 6.0 -16.5°
Reaches altitude 10° 21:30:13 10° 251° (WSW) 1,758 5.2 -16.7°
Maximum altitude 21:33:33 66° 168° (SSE) 1,016 3.4 -17.2°
Drops below altitude 10° 21:48:26 10° 90° (E) 7,246 7.6 -19.4°
Sets 22:02:43 0° 90° (E) 12,285 8.8 -21.4°
